Flag for U.S.A. Weather past 2 weeks in Wainwright, Alaska, U.S.A.

Now
39 °F

Sunny.


Feels Like: 30 °F
Forecast: 31 / 40 °F
Wind: 16 mph from East

Location: Wainwright Distant Early Warning

Current Time: May 23, 2015 at 11:45:11 PM

Latest Report: May 23, 2015 at 10:53 PM


Visibility: 10 mi

Pressure: 29.92 "Hg

Humidity: 82%

Dew point: 34 °F

Location of WainwrightLocation

Historic Weather in Wainwright — Graph

°F

Wainwright temperature yesterday

Maximum temperature yesterday: 42 °F (at 6:53 PM)
Minimum temperature yesterday: 34 °F (at 4:53 AM)
Average temperature yesterday: 38 °F

Past Weeks' High & Low Weather Summary

 TemperatureHumidityPressure
High49 °F (May 19, 3:53 PM)97% (May 16, 6:53 PM)30.19 "Hg (May 16, 6:53 PM)
Low22 °F (May 10, 5:53 AM)57% (May 22, 6:53 PM)29.68 "Hg (May 16, 2:53 PM)
Average35 °F86%29.94 "Hg
* Reported May 8 9:53 PM — May 23 9:53 PM, Wainwright, Weather by CustomWeather, © 2015

Note: Actual official high and low records may vary slightly from our data, if they occured in-between our weather recording intervals... More about our weather records

Advertising

Wainwright weather history for previous 24 hours

 ConditionsComfort  
Time TempWeatherWind HumidityBarometerVisibility
9:53 PM
Sat, May 23
41 °FSunny.24 mph76%29.91 "Hg10 mi
8:53 PM42 °FSunny.23 mph76%29.92 "Hg10 mi
7:53 PM43 °FScattered clouds.22 mph74%29.92 "Hg10 mi
6:53 PM44 °FPassing clouds.24 mph71%29.93 "Hg10 mi
5:53 PM44 °FSunny.21 mph71%29.94 "Hg6 mi
4:53 PM45 °FSunny.22 mph68%29.95 "Hg10 mi
3:53 PM45 °FSunny.26 mph68%29.96 "Hg10 mi
2:53 PM45 °FSunny.30 mph68%29.96 "Hg10 mi
1:53 PM44 °FSunny.21 mph71%29.99 "Hg10 mi
12:53 PM44 °FSunny.25 mph71%29.99 "Hg10 mi
11:53 AM43 °FSunny.23 mph71%30.00 "Hg10 mi
10:53 AM41 °FSunny.24 mph76%30.01 "Hg10 mi
9:53 AM40 °FSunny.22 mph80%30.02 "Hg10 mi
8:53 AM39 °FSunny.21 mph82%30.03 "Hg10 mi
7:53 AM38 °FSunny.20 mph86%30.05 "Hg10 mi
6:53 AM38 °FPartly sunny.18 mph83%30.06 "Hg10 mi
5:53 AM36 °FPassing clouds.15 mph85%30.07 "Hg10 mi
4:53 AM36 °FSunny.15 mph89%30.08 "Hg10 mi
3:53 AM36 °FSunny.15 mph89%30.08 "Hg10 mi
2:53 AM36 °FSunny.15 mph89%30.09 "Hg10 mi
1:53 AM35 °FSunny.15 mph88%30.10 "Hg10 mi
12:53 AM36 °FSunny.14 mph82%30.11 "Hg10 mi
11:53 PM
Fri, May 22
38 °FSunny.14 mph76%30.13 "Hg10 mi
Weather by CustomWeather, © 2015

See weather overviewHow to use our weather pages